Decorah, IA

10:41 AM CDT on May 25, 2018 (GMT -0500)
Decorah Municipal

Weather History for KDEH - February, 2014

Change the Weather History Date:

Monday, February 17, 2014

  Actual Average Record
Temperature  
Mean Temperature 26 °F -  
Max Temperature 32 °F 31 °F 62 °F (1981)
Min Temperature 19 °F 11 °F -20 °F (1958)
Degree Days  
Heating Degree Days 40    
Moisture  
Dew Point 20 °F    
Average Humidity 85    
Maximum Humidity 93    
Minimum Humidity 74    
Precipitation  
Precipitation 0.07 in - - ()
Sea Level Pressure  
Sea Level Pressure 29.81 in    
Wind  
Wind Speed 12 mph (South)    
Max Wind Speed 24 mph    
Max Gust Speed 36 mph    
Visibility 6 miles    
Events Snow    
Averages and records for this station are not official NWS values.
T = Trace of Precipitation, MM = Missing Value Source: NWS Daily Summary

Daily Weather History Graph

Daily Weather History Graph

Search for Another Location

Airport or City:

Astronomy

Feb. 17, 2014 Rise Set
Actual Time 7:01 AM CST 5:40 PM CST
Civil Twilight 6:32 AM CST 6:09 PM CST
Nautical Twilight 5:59 AM CST 6:43 PM CST
Astronomical Twilight 5:26 AM CST 7:16 PM CST
Moon 8:41 PM CST (2/17) 7:57 AM CST (2/17)
Length of Visible Light 11h 36m
Length of Day
10h 38m
Waning Gibbous, 93% of the Moon is Illuminated
Feb 17
Waning Gibbous
Feb 22
Last Quarter
Mar 1
New
Mar 8
First Quarter
Mar 16
Full

Hourly Weather History & Observations

Time (CST) Temp. Windchill Dew Point Humidity Pressure Visibility Wind Dir Wind Speed Gust Speed Precip Events Conditions
12:15 AM 19.4 °F 6.0 °F 12.2 °F 74% 30.08 in 10.0 mi SE 13.8 mph 20.7 mph N/A   Overcast
12:35 AM 19.4 °F 6.6 °F 12.2 °F 74% 30.07 in 10.0 mi SE 12.7 mph 19.6 mph N/A   Overcast
12:55 AM 19.4 °F 6.6 °F 12.2 °F 74% 30.07 in 10.0 mi SSE 12.7 mph 21.9 mph N/A   Overcast
1:15 AM 19.4 °F 7.2 °F 12.2 °F 74% 30.06 in 10.0 mi SSE 11.5 mph 18.4 mph N/A   Overcast
1:35 AM 19.4 °F 5.0 °F 12.2 °F 74% 30.05 in 10.0 mi SSE 16.1 mph 24.2 mph N/A   Overcast
1:55 AM 19.4 °F 6.0 °F 12.2 °F 74% 30.04 in 10.0 mi SSE 13.8 mph 21.9 mph N/A   Overcast
2:15 AM 19.4 °F 6.6 °F 14.0 °F 80% 30.04 in 10.0 mi SSE 12.7 mph 23.0 mph N/A   Overcast
2:35 AM 19.4 °F 6.6 °F 14.0 °F 80% 30.02 in 10.0 mi SSE 12.7 mph 25.3 mph N/A   Overcast
2:55 AM 21.2 °F 6.8 °F 14.0 °F 74% 29.99 in 10.0 mi SSE 17.3 mph 26.5 mph N/A   Overcast
3:15 AM 21.2 °F 6.8 °F 14.0 °F 74% 29.98 in 10.0 mi SSE 17.3 mph 28.8 mph N/A   Overcast
3:35 AM 21.2 °F 7.3 °F 15.8 °F 80% 29.96 in 9.0 mi SSE 16.1 mph 27.6 mph N/A   Overcast
3:55 AM 21.2 °F 7.3 °F 15.8 °F 80% 29.95 in 10.0 mi SE 16.1 mph 26.5 mph N/A   Overcast
4:15 AM 21.2 °F 6.4 °F 15.8 °F 80% 29.93 in 10.0 mi SE 18.4 mph 27.6 mph N/A   Overcast
4:35 AM 21.2 °F 5.6 °F 15.8 °F 80% 29.90 in 8.0 mi SE 20.7 mph 28.8 mph N/A   Overcast
4:55 AM 21.2 °F 6.4 °F 15.8 °F 80% 29.89 in 6.0 mi SE 18.4 mph 33.4 mph N/A   Haze
5:15 AM 21.2 °F 4.5 °F 15.8 °F 80% 29.86 in 6.0 mi SE 24.2 mph 34.5 mph N/A   Haze
5:35 AM 21.2 °F 5.2 °F 15.8 °F 80% 29.84 in 5.0 mi SE 21.9 mph 35.7 mph N/A   Haze
5:55 AM 21.2 °F 6.0 °F 15.8 °F 80% 29.82 in 4.0 mi SE 19.6 mph 34.5 mph N/A   Haze
6:15 AM 21.2 °F 6.0 °F 15.8 °F 80% 29.81 in 6.0 mi SE 19.6 mph 26.5 mph N/A   Haze
6:35 AM 21.2 °F 6.4 °F 15.8 °F 80% 29.80 in 1.2 mi SSE 18.4 mph 32.2 mph N/A Snow Light Snow
6:55 AM 21.2 °F 6.8 °F 17.6 °F 86% 29.79 in 1.0 mi SE 17.3 mph 32.2 mph N/A Snow Light Snow
7:15 AM 21.2 °F 6.8 °F 17.6 °F 86% 29.80 in 0.5 mi SSE 17.3 mph 26.5 mph N/A Snow Light Snow
7:35 AM 21.2 °F 6.4 °F 17.6 °F 86% 29.80 in 0.2 mi SE 18.4 mph 31.1 mph N/A Snow Light Snow
7:55 AM 21.2 °F 7.3 °F 17.6 °F 86% 29.80 in 0.2 mi SSE 16.1 mph 29.9 mph 0.01 in Snow Light Snow
8:15 AM 21.2 °F 6.8 °F 17.6 °F 86% 29.80 in 0.8 mi SSE 17.3 mph 24.2 mph N/A Snow Light Snow
8:35 AM 21.2 °F 9.5 °F 17.6 °F 86% 29.80 in 0.5 mi SSE 11.5 mph 20.7 mph N/A Snow Light Snow
8:55 AM 21.2 °F 9.5 °F 17.6 °F 86% 29.79 in 1.8 mi SSE 11.5 mph 18.4 mph 0.02 in Snow Light Snow
9:15 AM 21.2 °F 9.5 °F 19.4 °F 93% 29.79 in 0.8 mi SSE 11.5 mph - N/A Snow Light Snow
9:35 AM 21.2 °F 9.5 °F 19.4 °F 93% 29.79 in 0.2 mi SSE 11.5 mph 19.6 mph N/A Snow Light Snow
9:55 AM 21.2 °F 9.5 °F 19.4 °F 93% 29.78 in 0.5 mi South 11.5 mph 18.4 mph 0.02 in Snow Light Snow
10:15 AM 21.2 °F 11.7 °F 19.4 °F 93% 29.78 in 1.0 mi South 8.1 mph 17.3 mph N/A Snow Light Snow
10:35 AM 21.2 °F 10.1 °F 19.4 °F 93% 29.77 in 0.2 mi SSE 10.4 mph 17.3 mph N/A Snow Light Snow
10:55 AM 21.2 °F 9.5 °F 19.4 °F 93% 29.76 in 0.2 mi South 11.5 mph - N/A Snow Light Snow
11:15 AM 21.2 °F 10.1 °F 19.4 °F 93% 29.75 in 0.2 mi SSE 10.4 mph - N/A Snow Light Snow
11:35 AM 23.0 °F 11.7 °F 19.4 °F 86% 29.75 in 0.5 mi South 11.5 mph - N/A Snow Light Snow
11:55 AM 23.0 °F 10.6 °F 19.4 °F 86% 29.73 in 0.5 mi South 13.8 mph - 0.01 in Snow Light Snow
12:15 PM 23.0 °F 12.4 °F 19.4 °F 86% 29.72 in 0.8 mi South 10.4 mph 16.1 mph N/A Snow Light Snow
12:35 PM 23.0 °F 11.7 °F 19.4 °F 86% 29.71 in 0.8 mi South 11.5 mph 18.4 mph N/A Snow Light Snow
12:55 PM 23.0 °F 13.9 °F 21.2 °F 93% 29.70 in 1.0 mi South 8.1 mph - N/A Snow Light Snow
1:15 PM 23.0 °F 14.7 °F 21.2 °F 93% 29.70 in 1.2 mi Variable 6.9 mph 13.8 mph N/A Snow Light Snow
1:35 PM 24.8 °F 16.1 °F 21.2 °F 86% 29.68 in 2.0 mi SSW 8.1 mph - N/A Snow Light Snow
1:55 PM 24.8 °F 19.1 °F 21.2 °F 86% 29.68 in 1.0 mi Variable 4.6 mph 11.5 mph 0.01 in Snow Light Snow
2:15 PM 24.8 °F 17.9 °F 21.2 °F 86% 29.66 in 2.0 mi Variable 5.8 mph 12.7 mph N/A Snow Light Snow
2:35 PM 24.8 °F 17.9 °F 21.2 °F 86% 29.66 in 2.5 mi SW 5.8 mph - N/A Snow Light Snow
2:55 PM 26.6 °F 20.0 °F 23.0 °F 86% 29.66 in 5.0 mi SSW 5.8 mph - N/A Snow Light Snow
3:15 PM 26.6 °F 20.0 °F 23.0 °F 86% 29.67 in 6.0 mi WSW 5.8 mph - N/A   Overcast
3:35 PM 26.6 °F 21.2 °F 23.0 °F 86% 29.67 in 6.0 mi West 4.6 mph - N/A   Overcast
3:55 PM 28.4 °F 22.2 °F 24.8 °F 86% 29.68 in 6.0 mi Variable 5.8 mph - N/A   Overcast
4:15 PM 28.4 °F 22.2 °F 24.8 °F 86% 29.68 in 6.0 mi Variable 5.8 mph - N/A   Overcast
4:35 PM 30.2 °F 22.6 °F 26.6 °F 86% 29.68 in 6.0 mi West 8.1 mph 15.0 mph N/A   Overcast
4:55 PM 30.2 °F 21.9 °F 26.6 °F 86% 29.68 in 7.0 mi West 9.2 mph - N/A   Overcast
5:15 PM 30.2 °F 20.8 °F 26.6 °F 86% 29.69 in 7.0 mi WNW 11.5 mph 20.7 mph N/A   Overcast
5:35 PM 32.0 °F 22.1 °F 26.6 °F 80% 29.70 in 9.0 mi NW 13.8 mph 23.0 mph N/A   Overcast
5:55 PM 32.0 °F 24.2 °F 26.6 °F 80% 29.72 in 10.0 mi WNW 9.2 mph 19.6 mph N/A   Overcast
6:15 PM 30.2 °F 20.8 °F 26.6 °F 86% 29.72 in 10.0 mi NW 11.5 mph 19.6 mph N/A   Mostly Cloudy
6:35 PM 30.2 °F 21.9 °F 24.8 °F 80% 29.73 in 10.0 mi WNW 9.2 mph 15.0 mph N/A   Partly Cloudy
7:00 PM 28.4 °F 21.2 °F 24.8 °F 86% 29.74 in 10.0 mi WNW 6.9 mph 12.7 mph N/A   Clear
7:15 PM 28.4 °F 21.2 °F 24.8 °F 86% 29.75 in 10.0 mi Variable 6.9 mph 12.7 mph N/A   Clear
7:35 PM 26.6 °F 20.0 °F 23.0 °F 86% 29.75 in 10.0 mi WNW 5.8 mph 12.7 mph N/A   Clear
7:55 PM 26.6 °F 20.0 °F 23.0 °F 86% 29.75 in 10.0 mi West 5.8 mph - N/A   Clear
8:15 PM 26.6 °F 22.6 °F 23.0 °F 86% 29.76 in 10.0 mi West 3.5 mph 11.5 mph N/A   Clear
8:35 PM 24.8 °F 19.1 °F 23.0 °F 93% 29.77 in 10.0 mi Variable 4.6 mph - N/A   Clear
8:55 PM 24.8 °F 20.5 °F 23.0 °F 93% 29.78 in 10.0 mi Variable 3.5 mph - N/A   Clear
9:15 PM 24.8 °F - 21.2 °F 86% 29.80 in 10.0 mi Calm Calm - N/A   Clear
9:35 PM 23.0 °F - 21.2 °F 93% 29.80 in 10.0 mi Calm Calm - N/A   Clear
9:55 PM 23.0 °F 18.4 °F 21.2 °F 93% 29.81 in 10.0 mi Variable 3.5 mph - N/A   Clear
10:15 PM 23.0 °F 15.8 °F 21.2 °F 93% 29.80 in 10.0 mi Variable 5.8 mph - N/A   Clear
10:35 PM 23.0 °F - 21.2 °F 93% 29.80 in 10.0 mi Calm Calm - N/A   Clear
10:55 PM 23.0 °F - 21.2 °F 93% 29.81 in 10.0 mi Calm Calm - N/A   Clear
11:15 PM 23.0 °F 17.0 °F 21.2 °F 93% 29.82 in 10.0 mi West 4.6 mph - N/A   Clear
11:35 PM 23.0 °F 18.4 °F 21.2 °F 93% 29.82 in 10.0 mi Variable 3.5 mph - N/A   Clear
11:55 PM 23.0 °F 18.4 °F 21.2 °F 93% 29.83 in 10.0 mi WSW 3.5 mph - N/A   Clear